Year,Month,Day,Hour,Minute,Value (Times are PST for temperature in C)
2019,07,01,00,00,16.90
2019,07,01,00,01,16.90
2019,07,01,00,02,16.90
2019,07,01,00,03,16.90
2019,07,01,00,04,16.90
2019,07,01,00,05,16.90
2019,07,01,00,06,16.80
2019,07,01,00,07,16.80
2019,07,01,00,08,16.80
2019,07,01,00,09,16.80
2019,07,01,00,10,16.80
2019,07,01,00,11,16.80
2019,07,01,00,12,16.80
2019,07,01,00,13,16.80
2019,07,01,00,14,16.70
2019,07,01,00,15,16.70
2019,07,01,00,16,16.70
2019,07,01,00,17,16.70
2019,07,01,00,18,16.60
2019,07,01,00,19,16.60
2019,07,01,00,20,16.60
2019,07,01,00,21,16.60
2019,07,01,00,22,16.60
2019,07,01,00,23,16.50
2019,07,01,00,24,16.50
2019,07,01,00,25,16.50
2019,07,01,00,26,16.50
2019,07,01,00,27,16.40
2019,07,01,00,28,16.40
2019,07,01,00,29,16.40
2019,07,01,00,30,16.40
2019,07,01,00,31,16.30
2019,07,01,00,32,16.30
2019,07,01,00,33,16.30
2019,07,01,00,34,16.30
2019,07,01,00,35,16.30
2019,07,01,00,36,16.30
2019,07,01,00,37,16.30
2019,07,01,00,38,16.20
2019,07,01,00,39,16.20
2019,07,01,00,40,16.20
2019,07,01,00,41,16.20
2019,07,01,00,42,16.20
2019,07,01,00,43,16.10
2019,07,01,00,44,16.10
2019,07,01,00,45,16.10
2019,07,01,00,46,16.10
2019,07,01,00,47,16.10
2019,07,01,00,48,16.10
2019,07,01,00,49,16.10
2019,07,01,00,50,16.00
2019,07,01,00,51,16.00
2019,07,01,00,52,16.00
2019,07,01,00,53,16.00
2019,07,01,00,54,16.00
2019,07,01,00,55,16.00
2019,07,01,00,56,16.00
2019,07,01,00,57,16.00
2019,07,01,00,58,16.00
2019,07,01,00,59,16.00
2019,07,01,01,00,16.00
2019,07,01,01,01,16.00
2019,07,01,01,02,16.00
2019,07,01,01,03,15.90
2019,07,01,01,04,15.90
2019,07,01,01,05,15.90
2019,07,01,01,06,15.90
2019,07,01,01,07,15.80
2019,07,01,01,08,15.80
2019,07,01,01,09,15.90
2019,07,01,01,10,15.90
2019,07,01,01,11,15.90
2019,07,01,01,12,15.90
2019,07,01,01,13,16.00
2019,07,01,01,14,16.00
2019,07,01,01,15,16.00
2019,07,01,01,16,16.00
2019,07,01,01,17,16.10
2019,07,01,01,18,16.10
2019,07,01,01,19,16.10
2019,07,01,01,20,16.10
2019,07,01,01,21,16.10
2019,07,01,01,22,16.10
2019,07,01,01,23,16.10
2019,07,01,01,24,16.10
2019,07,01,01,25,16.10
2019,07,01,01,26,16.10
2019,07,01,01,27,16.10
2019,07,01,01,28,16.10
2019,07,01,01,29,16.10
2019,07,01,01,30,16.10
2019,07,01,01,31,16.10
2019,07,01,01,32,16.10
2019,07,01,01,33,16.10
2019,07,01,01,34,16.10
2019,07,01,01,35,16.10
2019,07,01,01,36,16.10
2019,07,01,01,37,16.10
2019,07,01,01,38,16.10
2019,07,01,01,39,16.10
2019,07,01,01,40,16.10
2019,07,01,01,41,16.10
2019,07,01,01,42,16.10
2019,07,01,01,43,16.00
2019,07,01,01,44,16.00
2019,07,01,01,45,16.00
2019,07,01,01,46,16.00
2019,07,01,01,47,16.00
2019,07,01,01,48,16.00
2019,07,01,01,49,16.00
2019,07,01,01,50,15.90
2019,07,01,01,51,15.90
2019,07,01,01,52,15.90
2019,07,01,01,53,15.90
2019,07,01,01,54,15.80
2019,07,01,01,55,15.80
2019,07,01,01,56,15.70
2019,07,01,01,57,15.70
2019,07,01,01,58,15.70
2019,07,01,01,59,15.70
2019,07,01,02,00,15.60
2019,07,01,02,01,15.60
2019,07,01,02,02,15.60
2019,07,01,02,03,15.50
2019,07,01,02,04,15.50
2019,07,01,02,05,15.50
2019,07,01,02,06,15.50
2019,07,01,02,07,15.50
2019,07,01,02,08,15.40
2019,07,01,02,09,15.40
2019,07,01,02,10,15.40
2019,07,01,02,11,15.40
2019,07,01,02,12,15.50
2019,07,01,02,13,15.50
2019,07,01,02,14,15.50
2019,07,01,02,15,15.50
2019,07,01,02,16,15.50
2019,07,01,02,17,15.50
2019,07,01,02,18,15.50
2019,07,01,02,19,15.50
2019,07,01,02,20,15.50
2019,07,01,02,21,15.60
2019,07,01,02,22,15.60
2019,07,01,02,23,15.60
2019,07,01,02,24,15.60
2019,07,01,02,25,15.60
2019,07,01,02,26,15.60
2019,07,01,02,27,15.60
2019,07,01,02,28,15.60
2019,07,01,02,29,15.60
2019,07,01,02,30,15.60
2019,07,01,02,31,15.60
2019,07,01,02,32,15.60
2019,07,01,02,33,15.60
2019,07,01,02,34,15.60
2019,07,01,02,35,15.60
2019,07,01,02,36,15.60
2019,07,01,02,37,15.60
2019,07,01,02,38,15.60
2019,07,01,02,39,15.60
2019,07,01,02,40,15.50
2019,07,01,02,41,15.50
2019,07,01,02,42,15.50
2019,07,01,02,43,15.50
2019,07,01,02,44,15.50
2019,07,01,02,45,15.50
2019,07,01,02,46,15.50
2019,07,01,02,47,15.50
2019,07,01,02,48,15.50
2019,07,01,02,49,15.50
2019,07,01,02,50,15.50
2019,07,01,02,51,15.50
2019,07,01,02,52,15.50
2019,07,01,02,53,15.50
2019,07,01,02,54,15.40
2019,07,01,02,55,15.40
2019,07,01,02,56,15.40
2019,07,01,02,57,15.40
2019,07,01,02,58,15.40
2019,07,01,02,59,15.40
2019,07,01,03,00,15.40
2019,07,01,03,01,15.40
2019,07,01,03,02,15.40
2019,07,01,03,03,15.40
2019,07,01,03,04,15.40
2019,07,01,03,05,15.40
2019,07,01,03,06,15.40
2019,07,01,03,07,15.30
2019,07,01,03,08,15.40
2019,07,01,03,09,15.40
2019,07,01,03,10,15.40
2019,07,01,03,11,15.40
2019,07,01,03,12,15.40
2019,07,01,03,13,15.30
2019,07,01,03,14,15.30
2019,07,01,03,15,15.30
2019,07,01,03,16,15.30
2019,07,01,03,17,15.30
2019,07,01,03,18,15.30
2019,07,01,03,19,15.20
2019,07,01,03,20,15.20
2019,07,01,03,21,15.20
2019,07,01,03,22,15.20
2019,07,01,03,23,15.20
2019,07,01,03,24,15.20
2019,07,01,03,25,15.20
2019,07,01,03,26,15.20
2019,07,01,03,27,15.20
2019,07,01,03,28,15.20
2019,07,01,03,29,15.10
2019,07,01,03,30,15.20
2019,07,01,03,31,15.10
2019,07,01,03,32,15.10
2019,07,01,03,33,15.10
2019,07,01,03,34,15.10
2019,07,01,03,35,15.10
2019,07,01,03,36,15.10
2019,07,01,03,37,15.10
2019,07,01,03,38,15.10
2019,07,01,03,39,15.00
2019,07,01,03,40,15.00
2019,07,01,03,41,15.00
2019,07,01,03,42,14.90
2019,07,01,03,43,14.90
2019,07,01,03,44,14.90
2019,07,01,03,45,14.90
2019,07,01,03,46,14.90
2019,07,01,03,47,14.80
2019,07,01,03,48,14.80
2019,07,01,03,49,14.80
2019,07,01,03,50,14.80
2019,07,01,03,51,14.80
2019,07,01,03,52,14.70
2019,07,01,03,53,14.70
2019,07,01,03,54,14.70
2019,07,01,03,55,14.70
2019,07,01,03,56,14.70
2019,07,01,03,57,14.60
2019,07,01,03,58,14.60
2019,07,01,03,59,14.60
2019,07,01,04,00,14.60
2019,07,01,04,01,14.60
2019,07,01,04,02,14.50
2019,07,01,04,03,14.50
2019,07,01,04,04,14.50
2019,07,01,04,05,14.40
2019,07,01,04,06,14.40
2019,07,01,04,07,14.40
2019,07,01,04,08,14.40
2019,07,01,04,09,14.40
2019,07,01,04,10,14.30
2019,07,01,04,11,14.30
2019,07,01,04,12,14.30
2019,07,01,04,13,14.30
2019,07,01,04,14,14.30
2019,07,01,04,15,14.30
2019,07,01,04,16,14.30
2019,07,01,04,17,14.30
2019,07,01,04,18,14.20
2019,07,01,04,19,14.20
2019,07,01,04,20,14.20
2019,07,01,04,21,14.20
2019,07,01,04,22,14.20
2019,07,01,04,23,14.20
2019,07,01,04,24,14.20
2019,07,01,04,25,14.20
2019,07,01,04,26,14.20
2019,07,01,04,27,14.20
2019,07,01,04,28,14.20
2019,07,01,04,29,14.20
2019,07,01,04,30,14.20
2019,07,01,04,31,14.20
2019,07,01,04,32,14.20
2019,07,01,04,33,14.20
2019,07,01,04,34,14.20
2019,07,01,04,35,14.20
2019,07,01,04,36,14.10
2019,07,01,04,37,14.10
2019,07,01,04,38,14.10
2019,07,01,04,39,14.10
2019,07,01,04,40,14.10
2019,07,01,04,41,14.10
2019,07,01,04,42,14.10
2019,07,01,04,43,14.10
2019,07,01,04,44,14.10
2019,07,01,04,45,14.10
2019,07,01,04,46,14.10
2019,07,01,04,47,14.10
2019,07,01,04,48,14.10
2019,07,01,04,49,14.10
2019,07,01,04,50,14.10
2019,07,01,04,51,14.10
2019,07,01,04,52,14.00
2019,07,01,04,53,14.00
2019,07,01,04,54,14.00
2019,07,01,04,55,14.00
2019,07,01,04,56,14.00
2019,07,01,04,57,14.00
2019,07,01,04,58,14.00
2019,07,01,04,59,14.00
2019,07,01,05,00,14.00
2019,07,01,05,01,14.00
2019,07,01,05,02,14.00
2019,07,01,05,03,13.90
2019,07,01,05,04,13.90
2019,07,01,05,05,13.90
2019,07,01,05,06,13.90
2019,07,01,05,07,13.90
2019,07,01,05,08,13.90
2019,07,01,05,09,13.90
2019,07,01,05,10,13.90
2019,07,01,05,11,13.90
2019,07,01,05,12,13.90
2019,07,01,05,13,13.90
2019,07,01,05,14,13.90
2019,07,01,05,15,13.90
2019,07,01,05,16,13.90
2019,07,01,05,17,13.90
2019,07,01,05,18,13.90
2019,07,01,05,19,13.90
2019,07,01,05,20,13.90
2019,07,01,05,21,13.90
2019,07,01,05,22,13.90
2019,07,01,05,23,13.90
2019,07,01,05,24,13.90
2019,07,01,05,25,13.90
2019,07,01,05,26,13.90
2019,07,01,05,27,13.90
2019,07,01,05,28,13.90
2019,07,01,05,29,13.90
2019,07,01,05,30,13.90
2019,07,01,05,31,13.90
2019,07,01,05,32,13.90
2019,07,01,05,33,13.90
2019,07,01,05,34,13.80
2019,07,01,05,35,13.80
2019,07,01,05,36,13.80
2019,07,01,05,37,13.80
2019,07,01,05,38,13.80
2019,07,01,05,39,13.80
2019,07,01,05,40,13.80
2019,07,01,05,41,13.80
2019,07,01,05,42,13.70
2019,07,01,05,43,13.70
2019,07,01,05,44,13.70
2019,07,01,05,45,13.70
2019,07,01,05,46,13.70
2019,07,01,05,47,13.70
2019,07,01,05,48,13.70
2019,07,01,05,49,13.80
2019,07,01,05,50,13.80
2019,07,01,05,51,13.80
2019,07,01,05,52,13.80
2019,07,01,05,53,13.80
2019,07,01,05,54,13.80
2019,07,01,05,55,13.80
2019,07,01,05,56,13.90
2019,07,01,05,57,13.90
2019,07,01,05,58,13.90
2019,07,01,05,59,13.90
2019,07,01,06,00,13.90
2019,07,01,06,01,13.90
2019,07,01,06,02,13.90
2019,07,01,06,03,13.90
2019,07,01,06,04,13.90
2019,07,01,06,05,13.90
2019,07,01,06,06,13.90
2019,07,01,06,07,13.90
2019,07,01,06,08,13.90
2019,07,01,06,09,13.90
2019,07,01,06,10,13.90
2019,07,01,06,11,13.90
2019,07,01,06,12,13.90
2019,07,01,06,13,13.90
2019,07,01,06,14,13.90
2019,07,01,06,15,14.00
2019,07,01,06,16,14.00
2019,07,01,06,17,14.00
2019,07,01,06,18,14.00
2019,07,01,06,19,14.00
2019,07,01,06,20,14.10
2019,07,01,06,21,14.10
2019,07,01,06,22,14.10
2019,07,01,06,23,14.10
2019,07,01,06,24,14.10
2019,07,01,06,25,14.10
2019,07,01,06,26,14.10
2019,07,01,06,27,14.10
2019,07,01,06,28,14.10
2019,07,01,06,29,14.10
2019,07,01,06,30,14.10
2019,07,01,06,31,14.10
2019,07,01,06,32,14.10
2019,07,01,06,33,14.10
2019,07,01,06,34,14.20
2019,07,01,06,35,14.20
2019,07,01,06,36,14.20
2019,07,01,06,37,14.20
2019,07,01,06,38,14.20
2019,07,01,06,39,14.20
2019,07,01,06,40,14.20
2019,07,01,06,41,14.30
2019,07,01,06,42,14.30
2019,07,01,06,43,14.30
2019,07,01,06,44,14.30
2019,07,01,06,45,14.30
2019,07,01,06,46,14.40
2019,07,01,06,47,14.40
2019,07,01,06,48,14.40
2019,07,01,06,49,14.40
2019,07,01,06,50,14.50
2019,07,01,06,51,14.50
2019,07,01,06,52,14.50
2019,07,01,06,53,14.60
2019,07,01,06,54,14.60
2019,07,01,06,55,14.60
2019,07,01,06,56,14.60
2019,07,01,06,57,14.60
2019,07,01,06,58,14.60
2019,07,01,06,59,14.60
2019,07,01,07,00,14.70
2019,07,01,07,01,14.70
2019,07,01,07,02,14.70
2019,07,01,07,03,14.70
2019,07,01,07,04,14.80
2019,07,01,07,05,14.80
2019,07,01,07,06,14.80
2019,07,01,07,07,14.90
2019,07,01,07,08,14.90
2019,07,01,07,09,15.00
2019,07,01,07,10,15.00
2019,07,01,07,11,15.10
2019,07,01,07,12,15.10
2019,07,01,07,13,15.20
2019,07,01,07,14,15.20
2019,07,01,07,15,15.20
2019,07,01,07,16,15.30
2019,07,01,07,17,15.30
2019,07,01,07,18,15.40
2019,07,01,07,19,15.40
2019,07,01,07,20,15.40
2019,07,01,07,21,15.40
2019,07,01,07,22,15.40
2019,07,01,07,23,15.40
2019,07,01,07,24,15.50
2019,07,01,07,25,15.50
2019,07,01,07,26,15.50
2019,07,01,07,27,15.50
2019,07,01,07,28,15.50
2019,07,01,07,29,15.60
2019,07,01,07,30,15.60
2019,07,01,07,31,15.60
2019,07,01,07,32,15.60
2019,07,01,07,33,15.60
2019,07,01,07,34,15.60
2019,07,01,07,35,15.60
2019,07,01,07,36,15.60
2019,07,01,07,37,15.70
2019,07,01,07,38,15.70
2019,07,01,07,39,15.70
2019,07,01,07,40,15.70
2019,07,01,07,41,15.70
2019,07,01,07,42,15.70
2019,07,01,07,43,15.80
2019,07,01,07,44,15.80
2019,07,01,07,45,15.80
2019,07,01,07,46,15.80
2019,07,01,07,47,15.80
2019,07,01,07,48,15.80
2019,07,01,07,49,15.80
2019,07,01,07,50,15.80
2019,07,01,07,51,15.90
2019,07,01,07,52,15.90
2019,07,01,07,53,15.90
2019,07,01,07,54,16.00
2019,07,01,07,55,16.00
2019,07,01,07,56,16.00
2019,07,01,07,57,16.10
2019,07,01,07,58,16.10
2019,07,01,07,59,16.10
2019,07,01,08,00,16.10
2019,07,01,08,01,16.20
2019,07,01,08,02,16.20
2019,07,01,08,03,16.20
2019,07,01,08,04,16.20
2019,07,01,08,05,16.30
2019,07,01,08,06,16.30
2019,07,01,08,07,16.30
2019,07,01,08,08,16.30
2019,07,01,08,09,16.30
2019,07,01,08,10,16.40
2019,07,01,08,11,16.40
2019,07,01,08,12,16.40
2019,07,01,08,13,16.40
2019,07,01,08,14,16.40
2019,07,01,08,15,16.40
2019,07,01,08,16,16.40
2019,07,01,08,17,16.40
2019,07,01,08,18,16.50
2019,07,01,08,19,16.50
2019,07,01,08,20,16.60
2019,07,01,08,21,16.60
2019,07,01,08,22,16.70
2019,07,01,08,23,16.70
2019,07,01,08,24,16.70
2019,07,01,08,25,16.70
2019,07,01,08,26,16.80
2019,07,01,08,27,16.80
2019,07,01,08,28,16.90
2019,07,01,08,29,16.90
2019,07,01,08,30,16.90
2019,07,01,08,31,17.00
2019,07,01,08,32,17.00
2019,07,01,08,33,17.10
2019,07,01,08,34,17.10
2019,07,01,08,35,17.10
2019,07,01,08,36,17.10
2019,07,01,08,37,17.10
2019,07,01,08,38,17.10
2019,07,01,08,39,17.10
2019,07,01,08,40,17.00
2019,07,01,08,41,17.00
2019,07,01,08,42,16.90
2019,07,01,08,43,16.80
2019,07,01,08,44,16.70
2019,07,01,08,45,16.70
2019,07,01,08,46,16.60
2019,07,01,08,47,16.60
2019,07,01,08,48,16.50
2019,07,01,08,49,16.50
2019,07,01,08,50,16.50
2019,07,01,08,51,16.40
2019,07,01,08,52,16.40
2019,07,01,08,53,16.40
2019,07,01,08,54,16.40
2019,07,01,08,55,16.40
2019,07,01,08,56,16.40
2019,07,01,08,57,16.40
2019,07,01,08,58,16.40
2019,07,01,08,59,16.40
2019,07,01,09,00,16.40
2019,07,01,09,01,16.40
2019,07,01,09,02,16.40
2019,07,01,09,03,16.40
2019,07,01,09,04,16.40
2019,07,01,09,05,16.40
2019,07,01,09,06,16.40
2019,07,01,09,07,16.50
2019,07,01,09,08,16.50
2019,07,01,09,09,16.50
2019,07,01,09,10,16.60
2019,07,01,09,11,16.60
2019,07,01,09,12,16.60
2019,07,01,09,13,16.60
2019,07,01,09,14,16.60
2019,07,01,09,15,16.60
2019,07,01,09,16,16.60
2019,07,01,09,17,16.70
2019,07,01,09,18,16.70
2019,07,01,09,19,16.70
2019,07,01,09,20,16.70
2019,07,01,09,21,16.70
2019,07,01,09,22,16.70
2019,07,01,09,23,16.70
2019,07,01,09,24,16.70
2019,07,01,09,25,16.70
2019,07,01,09,26,16.60
2019,07,01,09,27,16.70
2019,07,01,09,28,16.70
2019,07,01,09,29,16.70
2019,07,01,09,30,16.70
2019,07,01,09,31,16.70
2019,07,01,09,32,16.70
2019,07,01,09,33,16.70
2019,07,01,09,34,16.70
2019,07,01,09,35,16.70
2019,07,01,09,36,16.70
2019,07,01,09,37,16.70
2019,07,01,09,38,16.70
2019,07,01,09,39,16.70
2019,07,01,09,40,16.70
2019,07,01,09,41,16.70
2019,07,01,09,42,16.70
2019,07,01,09,43,16.60
2019,07,01,09,44,16.60
2019,07,01,09,45,16.60
2019,07,01,09,46,16.60
2019,07,01,09,47,16.60
2019,07,01,09,48,16.50
2019,07,01,09,49,16.50
2019,07,01,09,50,16.40
2019,07,01,09,51,16.40
2019,07,01,09,52,16.40
2019,07,01,09,53,16.30
2019,07,01,09,54,16.40
2019,07,01,09,55,16.40
2019,07,01,09,56,16.40
2019,07,01,09,57,16.40
2019,07,01,09,58,16.40
2019,07,01,09,59,16.40
2019,07,01,10,00,16.30
2019,07,01,10,01,16.30
2019,07,01,10,02,16.40
2019,07,01,10,03,16.40
2019,07,01,10,04,16.40
2019,07,01,10,05,16.40
2019,07,01,10,06,16.40
2019,07,01,10,07,16.40
2019,07,01,10,08,16.50
2019,07,01,10,09,16.50
2019,07,01,10,10,16.60
2019,07,01,10,11,16.50
2019,07,01,10,12,16.50
2019,07,01,10,13,16.60
2019,07,01,10,14,16.60
2019,07,01,10,15,16.60
2019,07,01,10,16,16.60
2019,07,01,10,17,16.60
2019,07,01,10,18,16.70
2019,07,01,10,19,16.60
2019,07,01,10,20,16.60
2019,07,01,10,21,16.70
2019,07,01,10,22,16.70
2019,07,01,10,23,16.70
2019,07,01,10,24,16.70
2019,07,01,10,25,16.70
2019,07,01,10,26,16.70
2019,07,01,10,27,16.70
2019,07,01,10,28,16.70
2019,07,01,10,29,16.70
2019,07,01,10,30,16.70
2019,07,01,10,31,16.70
2019,07,01,10,32,16.70
2019,07,01,10,33,16.70
2019,07,01,10,34,16.70
2019,07,01,10,35,16.70
2019,07,01,10,36,16.70
2019,07,01,10,37,16.70
2019,07,01,10,38,16.70
2019,07,01,10,39,16.70
2019,07,01,10,40,16.70
2019,07,01,10,41,16.70
2019,07,01,10,42,16.70
2019,07,01,10,43,16.70
2019,07,01,10,44,16.70
2019,07,01,10,45,16.70
2019,07,01,10,46,16.80
2019,07,01,10,47,16.80
2019,07,01,10,48,16.90
2019,07,01,10,49,16.90
2019,07,01,10,50,16.90
2019,07,01,10,51,17.00
2019,07,01,10,52,17.00
2019,07,01,10,53,17.00
2019,07,01,10,54,17.10
2019,07,01,10,55,17.10
2019,07,01,10,56,17.20
2019,07,01,10,57,17.20
2019,07,01,10,58,17.30
2019,07,01,10,59,17.30
2019,07,01,11,00,17.30
2019,07,01,11,01,17.30
2019,07,01,11,02,17.30
2019,07,01,11,03,17.40
2019,07,01,11,04,17.40
2019,07,01,11,05,17.40
2019,07,01,11,06,17.40
2019,07,01,11,07,17.50
2019,07,01,11,08,17.50
2019,07,01,11,09,17.50
2019,07,01,11,10,17.60
2019,07,01,11,11,17.60
2019,07,01,11,12,17.70
2019,07,01,11,13,17.70
2019,07,01,11,14,17.70
2019,07,01,11,15,17.80
2019,07,01,11,16,17.80
2019,07,01,11,17,17.80
2019,07,01,11,18,17.90
2019,07,01,11,19,17.90
2019,07,01,11,20,18.00
2019,07,01,11,21,18.00
2019,07,01,11,22,18.10
2019,07,01,11,23,18.10
2019,07,01,11,24,18.10
2019,07,01,11,25,18.20
2019,07,01,11,26,18.20
2019,07,01,11,27,18.20
2019,07,01,11,28,18.20
2019,07,01,11,29,18.20
2019,07,01,11,30,18.20
2019,07,01,11,31,18.20
2019,07,01,11,32,18.20
2019,07,01,11,33,18.20
2019,07,01,11,34,18.20
2019,07,01,11,35,18.20
2019,07,01,11,36,18.20
2019,07,01,11,37,18.20
2019,07,01,11,38,18.20
2019,07,01,11,39,18.20
2019,07,01,11,40,18.20
2019,07,01,11,41,18.20
2019,07,01,11,42,18.20
2019,07,01,11,43,18.20
2019,07,01,11,44,18.20
2019,07,01,11,45,18.10
2019,07,01,11,46,18.10
2019,07,01,11,47,18.10
2019,07,01,11,48,18.00
2019,07,01,11,49,18.00
2019,07,01,11,50,18.00
2019,07,01,11,51,17.90
2019,07,01,11,52,17.90
2019,07,01,11,53,17.90
2019,07,01,11,54,17.90
2019,07,01,11,55,17.90
2019,07,01,11,56,18.00
2019,07,01,11,57,18.00
2019,07,01,11,58,18.00
2019,07,01,11,59,18.10
2019,07,01,12,00,18.10
2019,07,01,12,01,18.10
2019,07,01,12,02,18.10
2019,07,01,12,03,18.10
2019,07,01,12,04,18.10
2019,07,01,12,05,18.10
2019,07,01,12,06,18.20
2019,07,01,12,07,18.20
2019,07,01,12,08,18.20
2019,07,01,12,09,18.20
2019,07,01,12,10,18.30
2019,07,01,12,11,18.30
2019,07,01,12,12,18.40
2019,07,01,12,13,18.40
2019,07,01,12,14,18.40
2019,07,01,12,15,18.40
2019,07,01,12,16,18.40
2019,07,01,12,17,18.40
2019,07,01,12,18,18.40
2019,07,01,12,19,18.40
2019,07,01,12,20,18.40
2019,07,01,12,21,18.40
2019,07,01,12,22,18.40
2019,07,01,12,23,18.40
2019,07,01,12,24,18.50
2019,07,01,12,25,18.60
2019,07,01,12,26,18.70
2019,07,01,12,27,18.80
2019,07,01,12,28,18.90
2019,07,01,12,29,19.10
2019,07,01,12,30,19.20
2019,07,01,12,31,19.30
2019,07,01,12,32,19.40
2019,07,01,12,33,19.50
2019,07,01,12,34,19.60
2019,07,01,12,35,19.70
2019,07,01,12,36,19.70
2019,07,01,12,37,19.80
2019,07,01,12,38,19.80
2019,07,01,12,39,19.90
2019,07,01,12,40,19.90
2019,07,01,12,41,20.00
2019,07,01,12,42,20.00
2019,07,01,12,43,20.00
2019,07,01,12,44,20.10
2019,07,01,12,45,20.00
2019,07,01,12,46,20.00
2019,07,01,12,47,20.10
2019,07,01,12,48,20.10
2019,07,01,12,49,20.10
2019,07,01,12,50,20.10
2019,07,01,12,51,20.10
2019,07,01,12,52,20.10
2019,07,01,12,53,20.10
2019,07,01,12,54,20.10
2019,07,01,12,55,20.10
2019,07,01,12,56,20.00
2019,07,01,12,57,19.90
2019,07,01,12,58,19.80
2019,07,01,12,59,19.70
2019,07,01,13,00,19.60
2019,07,01,13,01,19.60
2019,07,01,13,02,19.60
2019,07,01,13,03,19.60
2019,07,01,13,04,19.70
2019,07,01,13,05,19.60
2019,07,01,13,06,19.80
2019,07,01,13,07,19.80
2019,07,01,13,08,19.80
2019,07,01,13,09,19.80
2019,07,01,13,10,19.90
2019,07,01,13,11,19.90
2019,07,01,13,12,19.90
2019,07,01,13,13,19.90
2019,07,01,13,14,20.00
2019,07,01,13,15,20.10
2019,07,01,13,16,20.10
2019,07,01,13,17,20.20
2019,07,01,13,18,20.20
2019,07,01,13,19,20.20
2019,07,01,13,20,20.30
2019,07,01,13,21,20.30
2019,07,01,13,22,20.40
2019,07,01,13,23,20.50
2019,07,01,13,24,20.50
2019,07,01,13,25,20.60
2019,07,01,13,26,20.70
2019,07,01,13,27,20.70
2019,07,01,13,28,20.80
2019,07,01,13,29,20.80
2019,07,01,13,30,20.90
2019,07,01,13,31,20.90
2019,07,01,13,32,20.90
2019,07,01,13,33,20.90
2019,07,01,13,34,20.90
2019,07,01,13,35,20.90
2019,07,01,13,36,20.90
2019,07,01,13,37,20.90
2019,07,01,13,38,21.00
2019,07,01,13,39,21.00
2019,07,01,13,40,20.90
2019,07,01,13,41,20.80
2019,07,01,13,42,20.70
2019,07,01,13,43,20.60
2019,07,01,13,44,20.50
2019,07,01,13,45,20.50
2019,07,01,13,46,20.40
2019,07,01,13,47,20.30
2019,07,01,13,48,20.30
2019,07,01,13,49,20.30
2019,07,01,13,50,20.30
2019,07,01,13,51,20.30
2019,07,01,13,52,20.30
2019,07,01,13,53,20.20
2019,07,01,13,54,20.20
2019,07,01,13,55,20.20
2019,07,01,13,56,20.10
2019,07,01,13,57,20.10
2019,07,01,13,58,20.20
2019,07,01,13,59,20.10
2019,07,01,14,00,20.10
2019,07,01,14,01,20.10
2019,07,01,14,02,20.10
2019,07,01,14,03,20.10
2019,07,01,14,04,20.10
2019,07,01,14,05,20.20
2019,07,01,14,06,20.20
2019,07,01,14,07,20.30
2019,07,01,14,08,20.30
2019,07,01,14,09,20.40
2019,07,01,14,10,20.40
2019,07,01,14,11,20.40
2019,07,01,14,12,20.40
2019,07,01,14,13,20.40
2019,07,01,14,14,20.40
2019,07,01,14,15,20.40
2019,07,01,14,16,20.30
2019,07,01,14,17,20.30
2019,07,01,14,18,20.40
2019,07,01,14,19,20.40
2019,07,01,14,20,20.50
2019,07,01,14,21,20.50
2019,07,01,14,22,20.60
2019,07,01,14,23,20.70
2019,07,01,14,24,20.70
2019,07,01,14,25,20.70
2019,07,01,14,26,20.70
2019,07,01,14,27,20.70
2019,07,01,14,28,20.70
2019,07,01,14,29,20.80
2019,07,01,14,30,20.80
2019,07,01,14,31,20.80
2019,07,01,14,32,20.90
2019,07,01,14,33,21.00
2019,07,01,14,34,21.10
2019,07,01,14,35,21.20
2019,07,01,14,36,21.20
2019,07,01,14,37,21.20
2019,07,01,14,38,21.20
2019,07,01,14,39,21.20
2019,07,01,14,40,21.20
2019,07,01,14,41,21.20
2019,07,01,14,42,21.20
2019,07,01,14,43,21.10
2019,07,01,14,44,21.10
2019,07,01,14,45,21.00
2019,07,01,14,46,21.00
2019,07,01,14,47,21.10
2019,07,01,14,48,21.10
2019,07,01,14,49,21.10
2019,07,01,14,50,21.10
2019,07,01,14,51,21.10
2019,07,01,14,52,21.20
2019,07,01,14,53,21.10
2019,07,01,14,54,21.10
2019,07,01,14,55,21.00
2019,07,01,14,56,20.90
2019,07,01,14,57,20.80
2019,07,01,14,58,20.70
2019,07,01,14,59,20.70
2019,07,01,15,00,20.80
2019,07,01,15,01,20.80
2019,07,01,15,02,20.80
2019,07,01,15,03,20.80
2019,07,01,15,04,20.80
2019,07,01,15,05,20.80
2019,07,01,15,06,20.90
2019,07,01,15,07,20.90
2019,07,01,15,08,21.00
2019,07,01,15,09,21.20
2019,07,01,15,10,21.30
2019,07,01,15,11,21.50
2019,07,01,15,12,21.60
2019,07,01,15,13,21.70
2019,07,01,15,14,21.80
2019,07,01,15,15,21.90
2019,07,01,15,16,22.00
2019,07,01,15,17,22.00
2019,07,01,15,18,22.10
2019,07,01,15,19,22.10
2019,07,01,15,20,22.10
2019,07,01,15,21,22.10
2019,07,01,15,22,22.10
2019,07,01,15,23,22.10
2019,07,01,15,24,22.20
2019,07,01,15,25,22.20
2019,07,01,15,26,22.20
2019,07,01,15,27,22.20
2019,07,01,15,28,22.20
2019,07,01,15,29,22.30
2019,07,01,15,30,22.30
2019,07,01,15,31,22.30
2019,07,01,15,32,22.40
2019,07,01,15,33,22.40
2019,07,01,15,34,22.40
2019,07,01,15,35,22.50
2019,07,01,15,36,22.50
2019,07,01,15,37,22.40
2019,07,01,15,38,22.40
2019,07,01,15,39,22.40
2019,07,01,15,40,22.40
2019,07,01,15,41,22.40
2019,07,01,15,42,22.40
2019,07,01,15,43,22.30
2019,07,01,15,44,22.30
2019,07,01,15,45,22.20
2019,07,01,15,46,22.10
2019,07,01,15,47,22.00
2019,07,01,15,48,22.00
2019,07,01,15,49,22.10
2019,07,01,15,50,22.00
2019,07,01,15,51,22.00
2019,07,01,15,52,22.00
2019,07,01,15,53,22.00
2019,07,01,15,54,22.00
2019,07,01,15,55,21.90
2019,07,01,15,56,21.90
2019,07,01,15,57,21.80
2019,07,01,15,58,21.80
2019,07,01,15,59,21.70
2019,07,01,16,00,21.70
2019,07,01,16,01,21.70
2019,07,01,16,02,21.70
2019,07,01,16,03,21.70
2019,07,01,16,04,21.60
2019,07,01,16,05,21.60
2019,07,01,16,06,21.60
2019,07,01,16,07,21.60
2019,07,01,16,08,21.60
2019,07,01,16,09,21.60
2019,07,01,16,10,21.60
2019,07,01,16,11,21.60
2019,07,01,16,12,21.60
2019,07,01,16,13,21.50
2019,07,01,16,14,21.50
2019,07,01,16,15,21.40
2019,07,01,16,16,21.40
2019,07,01,16,17,21.30
2019,07,01,16,18,21.30
2019,07,01,16,19,21.30
2019,07,01,16,20,21.30
2019,07,01,16,21,21.20
2019,07,01,16,22,21.20
2019,07,01,16,23,21.20
2019,07,01,16,24,21.20
2019,07,01,16,25,21.20
2019,07,01,16,26,21.20
2019,07,01,16,27,21.10
2019,07,01,16,28,21.10
2019,07,01,16,29,21.00
2019,07,01,16,30,21.00
2019,07,01,16,31,21.00
2019,07,01,16,32,20.90
2019,07,01,16,33,20.90
2019,07,01,16,34,20.90
2019,07,01,16,35,20.90
2019,07,01,16,36,20.80
2019,07,01,16,37,20.80
2019,07,01,16,38,20.80
2019,07,01,16,39,20.80
2019,07,01,16,40,20.80
2019,07,01,16,41,20.80
2019,07,01,16,42,20.80
2019,07,01,16,43,20.90
2019,07,01,16,44,20.90
2019,07,01,16,45,20.90
2019,07,01,16,46,20.90
2019,07,01,16,47,20.80
2019,07,01,16,48,20.80
2019,07,01,16,49,20.80
2019,07,01,16,50,20.80
2019,07,01,16,51,20.80
2019,07,01,16,52,20.70
2019,07,01,16,53,20.70
2019,07,01,16,54,20.70
2019,07,01,16,55,20.70
2019,07,01,16,56,20.70
2019,07,01,16,57,20.70
2019,07,01,16,58,20.70
2019,07,01,16,59,20.70
2019,07,01,17,00,20.70
2019,07,01,17,01,20.60
2019,07,01,17,02,20.60
2019,07,01,17,03,20.60
2019,07,01,17,04,20.60
2019,07,01,17,05,20.50
2019,07,01,17,06,20.40
2019,07,01,17,07,20.30
2019,07,01,17,08,20.30
2019,07,01,17,09,20.20
2019,07,01,17,10,20.20
2019,07,01,17,11,20.10
2019,07,01,17,12,20.00
2019,07,01,17,13,19.90
2019,07,01,17,14,19.90
2019,07,01,17,15,20.00
2019,07,01,17,16,20.00
2019,07,01,17,17,20.10
2019,07,01,17,18,20.20
2019,07,01,17,19,20.20